When you browse on this site, cookies collect data to enhance your experience and personalize the content and advertising you see.
Visit our Privacy Policy to learn more. By continuing to use the site, you agree to this use of cookies and data.
  • En España
  • Lista de países
  • Para 7 días
  • Temperatura del agua
  • El tiempo en el mapa
  • Informadores
  • user-avatar
    Iniciar sesión

    Tiempo cada hora Linares

    Hoy, 27 Enero, Lunes

    Tiempo Temperatura Precipitaciones Viento Presión Humedad
    00:00 +20°C° 0 mm 2 mps 747 mmHg 47%
    01:00 +19°C° 0 mm 2 mps 747 mmHg 48%
    02:00 +18°C° 0 mm 2 mps 746 mmHg 53%
    03:00 +17°C° 0 mm 2 mps 746 mmHg 58%
    04:00 +16°C° 0 mm 2 mps 746 mmHg 62%
    05:00 +17°C° 0 mm 2 mps 746 mmHg 56%
    06:00 +19°C° 0 mm 2 mps 746 mmHg 50%
    07:00 +21°C° 0 mm 2 mps 746 mmHg 43%
    08:00 +26°C° 0 mm 2 mps 746 mmHg 35%
    09:00 +29°C° 0 mm 3 mps 746 mmHg 27%
    10:00 +34°C° 0 mm 3 mps 745 mmHg 19%
    11:00 +36°C° 0 mm 4 mps 745 mmHg 16%
    12:00 +38°C° 0 mm 4 mps 745 mmHg 13%
    13:00 +41°C° 0 mm 4 mps 745 mmHg 11%
    14:00 +41°C° 0 mm 4 mps 745 mmHg 11%
    15:00 +41°C° 0 mm 4 mps 745 mmHg 11%
    16:00 +41°C° 0 mm 5 mps 745 mmHg 11%
    17:00 +37°C° 0 mm 4 mps 745 mmHg 15%
    18:00 +34°C° 0 mm 4 mps 745 mmHg 19%
    19:00 +30°C° 0 mm 4 mps 745 mmHg 23%
    20:00 +27°C° 0 mm 3 mps 745 mmHg 29%
    21:00 +24°C° 0 mm 2 mps 745 mmHg 35%
    22:00 +21°C° 0 mm 1 mps 745 mmHg 41%
    23:00 +20°C° 0 mm 1 mps 745 mmHg 44%

    Mañana, 28 Enero, Martes

    Tiempo Temperatura Precipitaciones Viento Presión Humedad
    00:00 +19°C° 0 mm 1 mps 745 mmHg 47%
    01:00 +18°C° 0 mm 1 mps 745 mmHg 50%
    02:00 +16°C° 0 mm 1 mps 745 mmHg 58%
    03:00 +15°C° 0 mm 1 mps 745 mmHg 65%
    04:00 +15°C° 0 mm 1 mps 744 mmHg 72%
    05:00 +16°C° 0 mm 1 mps 745 mmHg 67%
    06:00 +18°C° 0 mm 2 mps 745 mmHg 62%
    07:00 +20°C° 0 mm 2 mps 745 mmHg 57%
    08:00 +24°C° 0 mm 2 mps 745 mmHg 48%
    09:00 +27°C° 0 mm 2 mps 745 mmHg 39%
    10:00 +31°C° 0 mm 3 mps 745 mmHg 30%
    11:00 +33°C° 0 mm 3 mps 744 mmHg 28%
    12:00 +35°C° 0 mm 3 mps 744 mmHg 26%
    13:00 +37°C° 0 mm 4 mps 744 mmHg 24%
    14:00 +35°C° 0.1 mm 5 mps 744 mmHg 28%
    15:00 +34°C° 0.1 mm 6 mps 744 mmHg 32%
    16:00 +33°C° 0.1 mm 7 mps 744 mmHg 35%
    17:00 +29°C° 0.1 mm 6 mps 745 mmHg 45%
    18:00 +26°C° 0.1 mm 5 mps 745 mmHg 55%
    19:00 +22°C° 0.1 mm 4 mps 745 mmHg 65%
    20:00 +21°C° 0 mm 3 mps 745 mmHg 69%
    21:00 +19°C° 0 mm 2 mps 746 mmHg 74%
    22:00 +18°C° 0 mm 1 mps 746 mmHg 78%
    23:00 +16°C° 0 mm 2 mps 746 mmHg 77%

    Pasado mañana, 29 Enero, Miércoles

    Tiempo Temperatura Precipitaciones Viento Presión Humedad
    00:00 +15°C° 0 mm 2 mps 746 mmHg 75%
    01:00 +13°C° 0 mm 2 mps 746 mmHg 74%
    02:00 +12°C° 0 mm 2 mps 746 mmHg 77%
    03:00 +10°C° 0 mm 2 mps 745 mmHg 80%
    04:00 +10°C° 0 mm 1 mps 745 mmHg 83%
    05:00 +12°C° 0 mm 2 mps 746 mmHg 77%
    06:00 +13°C° 0 mm 2 mps 746 mmHg 71%
    07:00 +15°C° 0 mm 2 mps 746 mmHg 66%
    08:00 +18°C° 0 mm 2 mps 746 mmHg 55%
    09:00 +23°C° 0 mm 2 mps 746 mmHg 44%
    10:00 +27°C° 0 mm 3 mps 746 mmHg 34%
    11:00 +30°C° 0 mm 3 mps 746 mmHg 28%
    12:00 +33°C° 0 mm 3 mps 746 mmHg 22%
    13:00 +35°C° 0 mm 3 mps 746 mmHg 16%
    14:00 +36°C° 0 mm 3 mps 746 mmHg 14%
    15:00 +36°C° 0 mm 3 mps 745 mmHg 12%
    16:00 +36°C° 0 mm 4 mps 745 mmHg 10%
    17:00 +33°C° 0 mm 3 mps 746 mmHg 11%
    18:00 +29°C° 0 mm 3 mps 746 mmHg 12%
    19:00 +26°C° 0 mm 3 mps 746 mmHg 13%
    20:00 +23°C° 0 mm 2 mps 747 mmHg 20%
    21:00 +20°C° 0 mm 2 mps 747 mmHg 26%
    22:00 +17°C° 0 mm 2 mps 747 mmHg 33%
    23:00 +16°C° 0 mm 1 mps 746 mmHg 36%

    30 Enero, Jueves

    Tiempo Temperatura Precipitaciones Viento Presión Humedad
    00:00 +15°C° 0 mm 1 mps 746 mmHg 40%
    01:00 +13°C° 0 mm 1 mps 746 mmHg 44%
    02:00 +13°C° 0 mm 1 mps 746 mmHg 49%
    03:00 +12°C° 0 mm 1 mps 746 mmHg 54%
    04:00 +11°C° 0 mm 1 mps 746 mmHg 60%
    05:00 +13°C° 0 mm 1 mps 746 mmHg 54%
    06:00 +15°C° 0 mm 2 mps 746 mmHg 48%
    07:00 +17°C° 0 mm 2 mps 746 mmHg 42%
    08:00 +21°C° 0 mm 2 mps 746 mmHg 33%
    09:00 +26°C° 0 mm 2 mps 746 mmHg 24%
    10:00 +30°C° 0 mm 3 mps 746 mmHg 15%
    11:00 +33°C° 0 mm 3 mps 746 mmHg 13%
    12:00 +36°C° 0 mm 3 mps 745 mmHg 11%
    13:00 +38°C° 0 mm 3 mps 745 mmHg 10%
    14:00 +38°C° 0 mm 3 mps 745 mmHg 9%
    15:00 +39°C° 0 mm 3 mps 745 mmHg 8%
    16:00 +40°C° 0 mm 4 mps 745 mmHg 8%
    17:00 +35°C° 0 mm 3 mps 745 mmHg 10%
    18:00 +30°C° 0 mm 3 mps 746 mmHg 13%
    19:00 +26°C° 0 mm 2 mps 746 mmHg 16%
    20:00 +24°C° 0 mm 2 mps 746 mmHg 20%
    21:00 +21°C° 0 mm 1 mps 746 mmHg 23%
    22:00 +18°C° 0 mm 1 mps 746 mmHg 27%
    23:00 +16°C° 0 mm 1 mps 746 mmHg 29%

    31 Enero, Viernes

    Tiempo Temperatura Precipitaciones Viento Presión Humedad
    00:00 +15°C° 0 mm 0 mps 746 mmHg 31%
    01:00 +14°C° 0 mm 0 mps 745 mmHg 34%
    02:00 +13°C° 0 mm 0 mps 745 mmHg 37%
    03:00 +12°C° 0 mm 0 mps 745 mmHg 41%
    04:00 +12°C° 0 mm 0 mps 745 mmHg 45%
    05:00 +15°C° 0 mm 1 mps 745 mmHg 42%
    06:00 +18°C° 0 mm 1 mps 746 mmHg 40%
    07:00 +20°C° 0 mm 1 mps 746 mmHg 37%
    08:00 +24°C° 0 mm 1 mps 746 mmHg 30%
    09:00 +28°C° 0 mm 1 mps 746 mmHg 23%
    10:00 +32°C° 0 mm 2 mps 746 mmHg 16%
    11:00 +35°C° 0 mm 2 mps 745 mmHg 14%
    12:00 +37°C° 0 mm 2 mps 745 mmHg 12%
    13:00 +39°C° 0 mm 2 mps 745 mmHg 10%
    14:00 +39°C° 0 mm 3 mps 745 mmHg 10%
    15:00 +40°C° 0 mm 4 mps 745 mmHg 10%
    16:00 +40°C° 0 mm 6 mps 745 mmHg 11%
    17:00 +35°C° 0 mm 4 mps 745 mmHg 16%
    18:00 +29°C° 0 mm 3 mps 745 mmHg 21%
    19:00 +25°C° 0 mm 1 mps 745 mmHg 27%
    20:00 +22°C° 0 mm 1 mps 746 mmHg 33%
    21:00 +20°C° 0 mm 1 mps 746 mmHg 38%
    22:00 +18°C° 0 mm 1 mps 746 mmHg 44%
    23:00 +16°C° 0 mm 1 mps 746 mmHg 49%

    1 Febrero, Sábado

    Tiempo Temperatura Precipitaciones Viento Presión Humedad
    00:00 +15°C° 0 mm 1 mps 745 mmHg 54%
    01:00 +14°C° 0 mm 1 mps 745 mmHg 58%
    02:00 +13°C° 0 mm 1 mps 745 mmHg 62%
    03:00 +12°C° 0 mm 1 mps 745 mmHg 66%
    04:00 +12°C° 0 mm 1 mps 745 mmHg 70%
    05:00 +14°C° 0 mm 1 mps 745 mmHg 64%
    06:00 +16°C° 0 mm 1 mps 745 mmHg 58%
    07:00 +18°C° 0 mm 2 mps 746 mmHg 51%
    08:00 +21°C° 0 mm 2 mps 746 mmHg 43%
    09:00 +25°C° 0 mm 2 mps 746 mmHg 35%
    10:00 +28°C° 0 mm 3 mps 746 mmHg 27%
    11:00 +30°C° 0 mm 3 mps 746 mmHg 24%
    12:00 +33°C° 0 mm 4 mps 746 mmHg 21%
    13:00 +35°C° 0 mm 4 mps 745 mmHg 18%
    14:00 +34°C° 0 mm 5 mps 745 mmHg 20%
    15:00 +34°C° 0 mm 6 mps 745 mmHg 22%
    16:00 +33°C° 0 mm 7 mps 745 mmHg 23%
    17:00 +29°C° 0 mm 5 mps 745 mmHg 37%
    18:00 +25°C° 0 mm 4 mps 746 mmHg 51%
    19:00 +20°C° 0 mm 3 mps 746 mmHg 65%
    20:00 +18°C° 0 mm 2 mps 746 mmHg 74%
    21:00 +18°C° 0 mm 1 mps 747 mmHg 83%
    22:00 +14°C° 0 mm 0 mps 747 mmHg 92%
    23:00 +13°C° 0 mm 0 mps 747 mmHg 92%
    Mostrar más